Regional Weather Roundup
Issued by NWS

Home | Current Version | Previous Version | Graphics & Text | Print | Product List | Glossary On
Versions: 1 2 3 4 5 6 7 8 9 10 11 12 13 14 15 16 17 18 19 20 21 22 23 24 25 26 27 28 29 30 31 32 33 34 35 36 37 38 39 40 41 42 43 44 45 46 47 48 49 50
000
ASUS43 KLMK 290402
RWRKY
KENTUCKY REGIONAL WEATHER ROUNDUP
NATIONAL WEATHER SERVICE LOUISVILLE KY
1200 AM EDT FRI MAY 29 2015

NOTE "FAIR" INDICATES FEW OR NO CLOUDS BELOW 12,000 FEET
WITH NO SIGNIFICANT WEATHER AND/OR OBSTRUCTIONS TO VISIBILITY.

KYZ001>023-026-027-061>063-070>075-290500-
WESTERN AND SOUTH CENTRAL KENTUCKY

CITY           SKY/WX    TMP DP  RH WIND       PRES   REMARKS
PADUCAH        CLEAR     70  67  90 CALM      30.08F
HENDERSON      CLEAR     73  64  73 SE6       30.09F
OWENSBORO      CLEAR     74  67  78 SE7       30.12F
HOPKINSVILLE   PTCLDY    73  66  81 SE5       30.11F
BOWLING GREEN  PTCLDY    72  66  81 SE7       30.15S
GLASGOW        NOT AVBL
$$

KYZ024-025-028>034-038-045-046-053-290500-
NORTH CENTRAL KENTUCKY

CITY           SKY/WX    TMP DP  RH WIND       PRES   REMARKS
LOUISVILLE/SDF PTCLDY    72  65  78 SE5       30.15S
LOUISVILLE/LOU CLEAR     71  66  84 CALM      30.16S
FORT KNOX      CLEAR     67  63  86 E3        30.15S
$$

KYZ035>037-039>044-047>052-055>060-089>105-290500-
NORTHEAST KENTUCKY

CITY           SKY/WX    TMP DP  RH WIND       PRES   REMARKS
LEXINGTON      RAIN      69  66  90 SE6       30.19F FOG
COVINGTON      MOCLDY    69  65  86 S7        30.17F
FRANKFORT      CLOUDY    71  64  78 SE6       30.17F
$$

KYZ054-064>069-076>088-106>120-290500-
SOUTHEAST KENTUCKY

CITY           SKY/WX    TMP DP  RH WIND       PRES   REMARKS
JACKSON        MOCLDY    71  67  87 SE5       30.22S
LONDON         MOCLDY    70  64  81 CALM      30.21S
SOMERSET       NOT AVBL
MIDDLESBORO    CLOUDY    69  67  93 CALM      30.22F
MONTICELLO     PTCLDY    69  69 100 CALM      30.23S
$$



USA.gov is the U.S. government's official web portal to all federal, state and local government web resources and services.